Lapse_Rate
6.5 6.5 6.4 6.3 6.3 6.4 6.4 6.4 6.4 6.4 6.5 6.5 6.4 6.5 6.5 6.4 6.4 6.3 6.2 6.2 6.2 6.1 6.1 6.3 6.0 6.0 6.1 6.1 6.2 6.4 6.4 6.3 6.2 6.1 6.1 6.1 6.1 6.1 6.2 6.3 6.4 6.5 6.5
6.5 6.4 6.4 6.3 6.3 6.4 6.3 6.3 6.3 6.3 6.3 6.5 6.5 6.5 6.5 6.4 6.2 6.2 6.1 6.1 6.2 6.3 6.2 6.5 6.4 6.3 6.3 6.4 6.4 6.4 6.5 6.5 6.6 6.6 6.4 6.3 6.3 6.3 6.4 6.5 6.7 6.8 6.8
6.4 6.4 6.3 6.2 6.3 6.4 6.3 6.3 6.3 6.4 6.4 6.5 6.6 6.5 6.3 6.3 6.2 5.9 5.9 6.0 6.0 6.1 6.3 6.1 6.2 6.2 6.3 6.2 6.3 6.4 6.5 6.4 6.4 6.4 6.5 6.4 6.4 6.4 6.3 6.3 6.4 6.5 6.6
6.3 6.2 6.1 6.1 6.2 6.2 6.4 6.4 6.4 6.4 6.4 6.5 6.4 6.3 6.1 6.0 5.9 5.9 5.9 5.9 5.8 5.9 6.1 5.9 6.0 5.9 6.0 6.1 6.1 6.2 6.2 6.3 6.2 6.4 6.4 6.3 6.3 6.2 6.3 6.3 6.3 6.2 6.1
6.2 6.2 6.2 6.1 6.2 6.3 6.4 6.5 6.5 6.5 6.2 6.2 6.2 6.2 5.9 5.8 6.0 6.4 6.9 6.6 5.8 5.7 5.8 5.7 5.7 5.6 5.8 5.8 5.9 6.0 6.2 6.2 6.3 6.3 6.2 6.3 6.3 6.2 6.1 6.1 6.0 5.9 6.0
6.2 6.1 6.0 6.0 6.2 6.4 6.6 6.7 6.6 6.2 6.0 6.1 6.3 6.1 5.8 5.7 6.0 6.5 6.8 6.6 6.0 5.6 5.5 5.8 5.7 5.6 5.6 5.8 6.0 6.1 6.2 6.2 6.3 6.3 6.2 6.1 6.2 5.9 5.9 6.0 6.0 6.0 5.9
6.0 6.0 6.0 6.1 6.5 6.7 6.9 6.9 6.5 6.3 6.2 6.3 6.2 6.1 6.1 5.7 5.9 6.1 6.2 6.3 6.2 6.0 5.9 6.0 5.8 5.8 5.8 5.9 6.0 6.2 6.2 6.1 6.2 6.2 6.1 6.2 6.0 5.8 5.9 6.1 6.0 6.2 6.3
5.9 5.8 6.0 6.3 6.5 6.5 6.6 6.5 6.5 6.3 6.2 6.4 6.4 6.2 6.2 6.5 6.4 6.3 6.4 6.4 6.4 6.4 6.3 6.2 6.0 6.0 5.9 6.0 6.1 6.2 6.1 6.0 6.0 6.1 6.1 6.0 5.8 5.9 5.9 5.8 5.9 6.2 5.7
6.0 6.1 6.3 6.4 6.6 6.7 6.6 6.5 6.4 6.4 6.4 6.4 6.4 6.3 6.3 6.5 6.7 6.5 6.5 6.3 6.5 6.4 6.4 6.2 6.0 6.0 6.0 6.1 6.1 6.0 5.9 5.9 5.9 5.9 6.0 5.9 5.7 5.7 5.7 5.5 5.7 6.0 5.8
5.9 6.2 6.4 6.5 6.8 7.1 6.8 6.4 6.5 6.5 6.5 6.4 6.4 6.4 6.3 6.4 6.6 6.5 6.6 6.7 6.6 6.5 6.6 6.7 6.4 6.2 6.1 6.1 5.9 5.8 5.8 5.8 5.8 5.9 6.1 6.0 5.7 5.8 5.9 5.4 5.4 5.8 5.8
6.2 6.2 6.3 6.5 6.9 7.0 6.6 6.3 6.3 6.4 6.5 6.4 6.4 6.4 6.2 6.3 6.6 6.9 6.7 6.5 6.6 6.6 6.5 6.5 6.5 6.3 6.2 6.0 5.9 5.9 5.8 5.8 5.9 6.1 6.2 6.2 6.0 5.8 5.9 5.8 5.8 5.7 5.9
6.0 6.1 6.3 6.2 6.4 6.4 6.2 6.1 6.2 6.3 6.4 6.3 6.4 6.4 6.3 6.3 6.3 6.5 6.7 6.8 6.7 6.3 6.3 6.3 6.3 6.3 6.2 6.0 5.9 5.7 5.7 5.7 5.7 5.8 5.9 6.0 6.2 6.0 5.9 6.0 5.9 5.9 5.9
5.7 6.0 6.0 6.1 6.1 6.2 6.1 5.8 5.9 6.2 6.3 6.2 6.3 6.3 6.3 6.2 6.1 6.1 6.4 6.5 6.6 6.3 6.3 6.1 6.1 6.1 6.0 5.9 5.7 5.7 5.8 5.7 5.7 5.8 5.9 5.9 6.0 6.0 5.8 5.7 5.5 5.6 5.5
5.5 5.8 5.9 5.6 5.5 5.8 6.0 6.2 6.1 5.9 5.9 5.9 5.9 6.0 6.2 6.1 6.0 5.9 5.9 6.1 6.4 6.4 6.1 6.0 5.9 6.0 6.0 5.9 5.7 5.8 5.7 5.7 5.8 5.9 5.9 5.9 5.8 5.9 5.9 5.7 5.8 5.7 5.5
5.4 5.4 5.3 5.4 5.4 5.5 6.0 6.2 6.1 5.9 5.7 5.7 5.7 5.8 5.9 5.9 5.9 5.7 5.6 5.7 5.8 6.1 6.1 5.4 5.7 5.6 5.6 5.7 5.7 5.6 5.7 5.7 5.7 5.8 5.7 5.8 5.9 5.9 5.8 5.7 5.5 5.4 5.3
5.1 5.1 5.2 5.2 5.3 5.4 5.5 5.8 5.9 5.9 5.9 5.7 5.7 5.7 5.7 5.6 5.6 5.5 5.5 5.4 5.4 5.5 6.0 5.3 5.4 5.6 5.5 5.4 5.6 5.5 5.5 5.5 5.5 5.6 5.6 5.5 5.4 5.5 5.5 5.5 5.4 5.3 5.1
5.0 5.2 5.4 5.7 5.7 5.7 5.5 5.4 5.5 5.6 5.6 5.6 5.6 5.5 5.5 5.3 5.3 5.2 5.3 5.2 5.1 5.1 5.7 5.4 5.0 4.9 5.1 4.9 5.1 5.2 5.2 5.2 5.4 5.3 5.3 5.3 5.3 5.3 5.3 5.3 5.3 5.3 5.1
5.0 5.1 5.4 5.8 6.0 5.8 5.7 5.7 5.5 5.2 5.5 5.6 5.5 5.4 5.3 4.9 5.1 4.9 4.8 4.8 4.9 4.8 5.0 5.2 4.9 4.6 4.7 4.7 4.8 4.9 5.0 5.0 4.9 4.8 5.0 5.1 5.1 5.1 5.0 5.0 4.9 5.0 5.0
4.7 4.9 5.0 5.3 5.6 6.0 5.9 5.6 5.7 5.7 5.5 5.2 5.2 5.2 5.1 4.9 4.9 4.7 4.7 4.7 4.7 4.6 4.6 4.8 4.9 4.6 4.5 4.5 4.5 4.4 4.6 4.7 4.6 4.7 4.7 4.7 4.8 4.8 4.9 4.8 4.8 4.7 4.8
5.0 5.1 5.2 5.3 5.2 5.1 5.3 5.6 5.8 5.8 5.8 5.6 5.2 4.9 4.8 4.7 4.6 4.6 4.7 4.8 4.8 4.7 4.6 4.6 4.8 4.6 4.6 4.4 4.6 4.7 4.5 4.7 4.7 4.7 4.5 4.7 4.7 4.7 4.7 4.7 4.6 4.6 4.6
5.2 5.4 5.6 5.7 5.5 5.4 5.2 5.1 5.1 5.5 5.7 5.8 5.8 5.5 5.2 5.0 4.9 4.9 4.8 4.8 4.8 4.8 4.8 4.7 4.8 4.7 4.6 4.4 4.5 4.7 4.7 4.7 4.7 4.7 4.7 4.5 4.5 4.5 4.4 4.4 4.4 4.4 4.4
5.3 5.5 5.7 5.7 5.9 5.6 5.5 5.3 5.2 5.1 5.2 5.4 5.7 5.6 5.5 5.4 5.1 4.8 4.8 4.9 5.0 5.1 5.1 4.9 4.8 4.9 4.8 4.6 4.6 4.7 4.6 4.6 4.6 4.4 4.4 4.4 4.5 4.4 4.4 4.4 4.4 4.4 4.4
5.4 5.5 5.6 5.7 5.8 5.6 5.5 5.3 5.2 5.3 5.3 5.3 5.3 5.5 5.5 5.4 5.4 5.3 5.2 5.0 5.1 5.1 5.1 5.0 5.1 4.9 4.8 4.7 4.9 4.8 4.7 4.8 4.7 4.6 4.6 4.7 4.5 4.4 4.3 4.3 4.3 4.3 4.3
5.3 5.5 5.6 5.6 5.6 5.4 5.4 5.3 5.3 5.3 5.3 5.3 5.3 5.4 5.3 5.4 5.3 5.3 5.4 5.2 5.2 5.1 5.0 4.9 4.9 5.0 5.0 4.9 4.9 4.8 4.7 4.7 4.6 4.6 4.4 4.5 4.6 4.5 4.3 4.2 4.1 4.1 4.2
5.3 5.3 5.4 5.4 5.3 5.1 5.1 5.1 5.2 5.2 5.2 5.3 5.3 5.3 5.4 5.6 5.5 5.5 5.7 5.5 5.4 5.1 4.9 4.9 4.8 4.8 4.8 4.7 4.7 4.9 4.8 4.7 4.7 4.6 4.5 4.7 4.7 4.5 4.3 4.2 4.0 4.0 3.9
5.0 5.0 5.0 5.0 5.1 5.1 5.2 5.2 5.2 5.3 5.4 5.3 5.4 5.3 5.1 5.4 5.4 5.4 5.5 5.5 5.6 5.5 5.5 5.3 5.2 5.1 5.1 5.0 5.0 4.9 4.7 4.8 4.6 4.8 4.7 4.8 4.6 4.3 4.1 3.9 3.9 3.8 3.8
Wind_Speed
5 9 10 10 11 11 11 9 10 9 8 11 12 9 7 8 9 8 8 3 2 1 3 5 7 8 9 9 10 11 12 12 13 14 15 15 16 17 17 19 21 26 28
6 6 7 7 8 12 14 11 7 4 5 7 6 9 7 8 8 7 5 2 4 2 5 4 5 6 7 8 9 10 11 11 12 12 13 15 16 16 18 18 20 21 24
6 7 5 5 7 12 12 11 8 9 6 6 6 5 6 10 7 7 6 6 1 6 6 5 5 6 8 9 10 10 10 10 11 12 13 14 16 17 18 20 21 23 24
5 7 4 4 9 11 9 4 4 5 5 6 4 5 5 6 5 6 5 7 10 6 6 5 7 8 11 10 9 8 9 12 12 13 13 14 16 16 19 20 21 23 25
5 5 5 6 9 7 4 3 3 4 5 5 6 7 6 3 4 3 4 7 8 7 6 3 11 11 12 10 11 13 13 14 15 15 15 18 16 18 21 22 25 27 29
3 4 6 6 7 4 4 3 3 4 4 4 8 8 6 3 2 1 2 5 6 4 4 8 6 10 9 9 10 14 14 16 15 16 17 19 19 20 23 24 26 27 29
6 4 5 5 6 3 5 4 2 4 4 4 4 6 4 5 1 2 1 2 1 4 9 10 11 7 5 8 10 12 16 17 17 18 17 21 22 24 25 26 28 28 25
8 5 4 4 4 3 5 5 3 3 3 4 3 3 4 3 4 3 2 2 2 4 5 8 5 6 7 5 7 10 14 16 17 18 20 21 23 25 26 28 33 27 20
7 6 7 6 4 3 3 3 3 2 2 4 4 1 3 3 4 3 5 4 5 3 4 5 3 3 4 5 5 6 10 14 16 18 19 20 22 25 28 30 31 24 8
9 9 7 7 6 3 4 4 2 1 1 3 3 3 2 2 2 4 3 5 5 6 3 2 3 3 1 2 4 5 9 12 15 16 18 19 22 24 27 29 29 28 20
11 10 8 6 5 3 4 4 3 4 2 2 2 2 4 3 4 3 4 4 4 5 3 2 3 3 3 1 4 7 11 14 14 15 16 18 21 22 24 27 27 26 26
4 6 8 7 7 4 5 4 5 5 5 4 3 3 3 3 3 3 6 5 5 5 3 4 2 3 3 2 5 5 10 11 13 14 14 15 17 19 21 21 23 24 23
3 5 4 3 4 6 6 5 5 5 5 4 5 4 4 4 4 4 4 4 4 7 4 4 3 4 6 1 1 6 9 7 12 13 13 14 15 16 17 18 19 21 21
4 4 4 5 6 7 6 5 4 4 6 5 7 5 4 4 5 5 4 5 6 4 4 5 1 2 5 4 3 5 7 2 8 10 11 13 13 14 14 15 16 17 18
4 5 5 6 6 6 6 6 4 5 6 5 6 6 5 4 4 5 5 3 3 4 4 4 1 0 1 1 2 5 6 3 5 7 9 10 11 12 12 13 14 14 15
4 5 6 6 7 7 7 6 5 6 6 5 5 6 5 4 5 4 4 4 4 5 4 3 2 2 3 3 9 7 6 5 7 5 5 8 9 9 10 11 12 13 13
6 7 7 7 6 6 7 6 6 6 7 6 6 6 7 6 4 4 4 4 5 6 10 5 3 2 4 3 4 9 7 6 5 4 3 6 7 6 6 8 9 10 10
6 7 7 7 6 7 6 6 7 7 7 7 7 7 7 5 7 6 4 6 5 6 5 11 3 2 3 4 3 5 4 8 5 5 2 5 7 4 3 4 6 7 8
7 7 7 7 7 6 6 7 6 6 7 7 7 7 7 7 6 5 5 5 4 5 4 4 4 2 3 2 3 3 2 4 7 9 6 6 6 4 3 2 4 5 5
6 6 6 7 7 7 7 7 6 6 6 6 7 7 7 7 7 7 6 6 6 5 4 4 4 4 3 3 1 2 3 2 3 4 6 5 5 5 4 4 4 4 4
6 6 6 6 7 6 5 7 5 6 6 7 7 6 6 8 10 9 4 5 5 5 4 4 3 2 2 2 3 2 3 2 3 3 2 2 2 4 8 9 7 6 5
7 6 6 6 6 5 8 7 6 5 6 8 7 6 6 7 7 12 12 11 8 5 5 4 3 5 5 3 3 3 2 0 3 1 1 3 4 3 4 9 9 7 7
6 6 7 6 7 6 11 10 8 5 6 7 7 6 5 4 7 6 9 11 12 14 14 4 6 6 5 5 4 3 3 3 3 3 2 3 2 3 4 9 10 8 9
6 6 6 6 6 6 11 9 8 6 6 7 8 7 6 6 5 5 6 6 6 6 7 7 9 10 6 4 5 5 5 3 2 2 3 2 1 3 2 5 9 9 10
5 5 5 7 7 7 10 11 5 5 6 7 6 6 5 4 5 5 3 5 6 5 6 13 15 14 13 12 7 4 3 2 2 3 3 3 2 2 1 2 4 10 10
6 5 6 7 8 7 8 2 4 3 6 5 6 6 10 7 4 4 4 5 6 5 5 5 3 5 6 6 11 6 4 3 3 2 4 3 0 2 3 2 1 2 5
Wind_Direction
358 351 340 342 341 354 342 336 323 323 318 317 307 306 311 302 302 299 315 179 134 72 29 342 316 314 315 317 317 316 314 312 312 311 309 307 304 301 299 292 279 262 254
3 351 329 336 345 358 336 328 322 324 317 316 310 316 311 315 326 336 297 255 187 102 69 28 2 344 340 333 324 320 320 319 321 329 325 320 314 310 305 298 292 288 272
0 338 330 332 351 343 328 322 331 343 328 318 315 322 334 325 322 326 353 17 43 122 92 69 36 18 6 351 342 334 334 331 328 325 323 316 310 306 301 295 291 290 286
354 344 337 336 345 337 324 345 354 340 323 319 323 321 314 304 330 319 5 66 48 79 101 83 70 40 18 1 352 343 351 347 336 333 325 319 306 305 303 292 288 283 277
346 346 328 323 343 325 321 0 352 333 324 322 329 323 303 304 345 333 61 77 77 42 31 70 91 53 24 359 3 3 0 352 346 335 330 330 340 334 326 311 300 287 285
293 335 313 319 322 325 326 336 4 327 324 319 329 306 295 289 267 45 54 100 107 88 44 54 140 24 12 358 8 358 356 356 347 339 341 343 344 339 327 315 310 288 283
305 313 307 317 322 324 311 316 331 349 326 325 326 330 297 226 140 151 154 76 139 129 76 76 39 354 350 4 7 2 3 357 350 351 346 349 354 341 329 325 317 311 292
272 280 297 305 306 318 323 327 352 351 322 342 324 310 332 336 352 312 98 32 24 102 90 75 59 10 12 16 11 8 1 358 354 357 358 359 351 343 338 336 329 309 278
251 260 265 277 284 290 286 301 311 54 309 312 338 2 348 328 326 339 6 355 323 78 131 121 129 53 2 1 3 25 3 360 360 359 356 357 351 348 348 351 352 350 277
270 259 259 264 272 272 279 278 313 236 201 311 326 80 315 279 329 326 329 332 15 7 86 210 213 143 24 340 338 10 355 1 359 358 355 356 355 353 353 357 9 20 20
261 244 233 252 268 270 261 262 285 284 227 214 235 306 297 289 258 253 290 315 342 336 309 339 219 150 132 10 335 357 353 354 358 356 354 356 356 358 359 3 9 18 29
295 267 230 223 240 255 264 257 251 254 257 239 231 227 251 267 293 289 291 294 279 285 330 290 214 151 148 324 317 7 350 346 354 356 351 355 357 2 3 7 12 16 26
298 297 298 250 241 240 240 238 246 250 254 231 225 224 232 249 260 269 283 287 298 315 300 272 239 165 152 257 302 352 338 327 353 350 352 356 357 3 9 13 16 21 24
274 278 287 288 273 264 255 242 233 243 246 251 242 233 236 244 272 268 274 287 300 293 299 262 301 181 186 183 270 327 336 11 359 345 350 351 355 1 11 18 23 26 25
281 287 285 274 272 267 257 244 235 241 245 247 246 236 228 231 226 253 254 237 248 294 305 301 202 159 173 326 337 287 304 303 338 332 343 345 352 0 11 17 24 29 35
300 306 294 285 284 276 266 249 245 242 240 245 246 245 240 228 226 226 217 222 220 242 261 224 295 338 277 332 336 266 275 298 305 286 335 340 346 356 10 19 25 28 35
313 308 300 294 284 281 283 277 262 245 242 244 239 236 245 237 236 235 219 211 229 242 260 276 255 274 296 276 308 290 290 264 291 242 313 320 327 336 359 18 29 38 48
310 301 300 295 290 284 276 274 276 277 262 253 247 243 242 242 236 231 224 228 224 226 230 268 247 269 264 249 238 277 270 282 235 243 279 306 301 293 318 15 27 37 62
304 310 307 296 292 288 288 282 271 271 270 263 250 242 240 236 240 231 226 226 229 230 225 241 270 239 269 281 297 290 292 285 251 236 248 271 286 265 272 329 7 21 47
304 299 292 291 295 294 289 283 273 278 279 269 266 256 246 232 233 235 232 224 224 222 220 233 247 258 231 267 222 242 296 294 266 246 229 244 263 270 239 258 296 329 345
294 289 294 305 299 298 295 292 307 307 299 290 281 265 254 241 226 225 222 241 233 225 218 227 246 238 242 274 243 243 221 265 287 228 224 262 218 234 250 252 254 257 268
298 302 304 296 296 288 291 305 306 296 287 284 281 274 266 269 266 252 243 229 217 219 225 205 223 235 240 231 235 224 210 21 309 285 163 277 193 228 230 223 226 225 238
305 308 304 305 302 300 302 303 305 291 283 274 273 274 274 255 259 248 248 251 254 250 239 206 232 226 238 215 200 206 213 198 228 256 125 280 193 237 242 228 205 212 228
304 303 303 301 302 298 299 308 309 297 282 273 271 266 261 268 267 267 239 250 249 236 236 233 232 249 234 229 204 189 191 203 286 257 153 248 247 238 275 216 213 222 224
299 291 285 298 292 288 286 298 316 306 296 294 289 298 278 274 286 354 295 270 274 273 261 238 226 232 231 240 191 139 189 134 275 258 205 171 252 255 275 262 257 222 225
286 290 289 278 280 294 296 287 327 309 300 302 309 308 302 262 254 311 284 272 275 261 273 288 303 266 244 231 205 190 165 181 185 319 225 167 194 125 331 299 322 277 231